Satellite-Ground Cal/Val Region Overpasses Predictions

Prediction of Satellite NPP Overpassing Cal/Val Region: PacNW

Region Location: (Latitude: 10.00, Longitude: 139.50) to (Latitude: 22.70, Longitude: 165.60).

Table of predicted overpasses for the next 14.0 days since TLE Epoch: 7/1/2013
Interval Starting Time Starting Location Ending Time Ending Location
1 07/01/2013 14:51:46 ( 22.65, 161.86) 07/01/2013 14:55:21 ( 10.03, 158.86)
2 07/02/2013 03:42:21 ( 10.06, 144.00) 07/02/2013 03:45:56 ( 22.68, 140.99)
3 07/02/2013 14:33:56 ( 18.45, 165.59) 07/02/2013 14:36:19 ( 10.05, 163.62)
4 07/02/2013 16:14:14 ( 22.66, 141.25) 07/02/2013 16:16:17 ( 15.45, 139.50)
5 07/03/2013 03:23:18 ( 10.04, 148.77) 07/03/2013 03:26:53 ( 22.66, 145.76)
6 07/03/2013 15:55:11 ( 22.68, 146.02) 07/03/2013 15:58:47 ( 10.00, 143.00)
7 07/04/2013 03:04:16 ( 10.02, 153.53) 07/04/2013 03:07:51 ( 22.64, 150.52)
8 07/04/2013 15:36:09 ( 22.70, 150.78) 07/04/2013 15:39:45 ( 10.02, 147.76)
9 07/05/2013 02:45:13 ( 10.00, 158.30) 07/05/2013 02:48:49 ( 22.69, 155.28)
10 07/05/2013 15:17:07 ( 22.66, 155.54) 07/05/2013 15:20:42 ( 10.04, 152.53)
11 07/06/2013 02:26:12 ( 10.05, 163.05) 07/06/2013 02:29:47 ( 22.67, 160.04)
12 07/06/2013 14:58:05 ( 22.68, 160.30) 07/06/2013 15:01:41 ( 10.00, 157.28)
13 07/07/2013 02:09:50 ( 19.48, 165.59) 07/07/2013 02:10:44 ( 22.65, 164.81)
14 07/07/2013 03:48:39 ( 10.04, 142.44) 07/07/2013 03:52:09 ( 22.37, 139.50)
15 07/07/2013 14:39:02 ( 22.69, 165.07) 07/07/2013 14:42:38 ( 10.02, 162.05)
16 07/07/2013 16:20:32 ( 22.69, 139.69) 07/07/2013 16:20:44 ( 21.98, 139.51)
17 07/08/2013 03:29:37 ( 10.02, 147.20) 07/08/2013 03:33:12 ( 22.64, 144.20)
18 07/08/2013 16:01:31 ( 22.64, 144.44) 07/08/2013 16:05:06 ( 10.03, 141.43)
19 07/09/2013 03:10:34 ( 10.00, 151.97) 07/09/2013 03:14:10 ( 22.69, 148.95)
20 07/09/2013 15:42:28 ( 22.66, 149.21) 07/09/2013 15:46:03 ( 10.04, 146.20)
21 07/10/2013 02:51:33 ( 10.05, 156.72) 07/10/2013 02:55:08 ( 22.67, 153.71)
22 07/10/2013 15:23:26 ( 22.68, 153.97) 07/10/2013 15:27:02 ( 10.00, 150.95)
23 07/11/2013 02:32:31 ( 10.03, 161.48) 07/11/2013 02:36:06 ( 22.66, 158.48)
24 07/11/2013 15:04:23 ( 22.69, 158.74) 07/11/2013 15:07:59 ( 10.02, 155.72)
25 07/12/2013 02:14:16 ( 12.84, 165.60) 07/12/2013 02:17:03 ( 22.64, 163.24)
26 07/12/2013 03:54:58 ( 10.03, 140.87) 07/12/2013 03:56:38 ( 15.90, 139.51)
27 07/12/2013 14:45:22 ( 22.65, 163.49) 07/12/2013 14:48:57 ( 10.03, 160.48)
28 07/13/2013 03:35:56 ( 10.01, 145.64) 07/13/2013 03:39:32 ( 22.69, 142.61)
29 07/13/2013 14:29:28 ( 11.57, 165.60) 07/13/2013 14:29:54 ( 10.05, 165.25)
30 07/13/2013 16:07:49 ( 22.66, 142.88) 07/13/2013 16:11:24 ( 10.04, 139.87)
31 07/14/2013 03:16:53 ( 10.00, 150.40) 07/14/2013 03:20:29 ( 22.68, 147.38)
32 07/14/2013 15:48:47 ( 22.67, 147.64) 07/14/2013 15:52:22 ( 10.05, 144.63)


NCC Satellite Cal/Val Overpasses Prediction Service
